Weather History for Springfield, MO

Change the Weather History Date:

Monday, July 1, 2013

  Actual Average Record
Temperature  
Mean Temperature 70 °F 77 °F  
Max Temperature 80 °F 87 °F 99 °F (2012)
Min Temperature 59 °F 67 °F 52 °F (1976)
Degree Days  
Heating Degree Days 0 0  
Month to date heating degree days 0 0  
Since 1 June heating degree days 14 9  
Since 1 July heating degree days 0 0  
Cooling Degree Days 5 12  
Month to date cooling degree days 5 12  
Year to date cooling degree days 416 390  
Since 1 June cooling degree days 289 275  
Growing Degree Days 20 (Base 50)    
Moisture  
Dew Point 56 °F    
Average Humidity 68    
Maximum Humidity 93    
Minimum Humidity 42    
Precipitation  
Precipitation 0.00 in 0.14 in 4.29 in (1973)
Month to date precipitation 0.00 0.14  
Year to date precipitation 25.98 23.02  
Snow  
Snow 0.00 in - - ()
Month to date snowfall 0.0  
Since 1 June snowfall 0.0  
Since 1 July snowfall 0.0  
Snow Depth 0.00 in    
Sea Level Pressure  
Sea Level Pressure 30.00 in    
Wind  
Wind Speed 9 mph (North)    
Max Wind Speed 20 mph    
Max Gust Speed 26 mph    
Visibility 10 miles    
Events      
T = Trace of Precipitation, MM = Missing Value Source: NWS Daily Summary

Daily Weather History Graph

Daily Weather History Graph

Search for Another Location

Airport:

Trip Planner

Search our weather history database for the weather conditions in past years. The results will help you decide how hot, cold, wet, or windy it might be!

Date:

Astronomy

Jul. 01, 2013 Rise Set
Actual Time 5:57 AM CDT 8:37 PM CDT
Civil Twilight 5:26 AM CDT 9:08 PM CDT
Nautical Twilight 4:47 AM CDT 9:47 PM CDT
Astronomical Twilight 4:04 AM CDT 10:30 PM CDT
Moon 1:22 AM CDT (7/1) 2:58 PM CDT (7/1)
Length of Visible Light 15h 42m
Length of Day
14h 40m
Waning Crescent, 35% of the Moon is Illuminated
Jul 1
Waning Crescent
Jul 8
New
Jul 15
First Quarter
Jul 22
Full
Jul 29
Last Quarter

Hourly Weather History & Observations

Time (CDT) Temp. Dew Point Humidity Pressure Visibility Wind Dir Wind Speed Gust Speed Precip Events Conditions
12:52 AM 66.0 °F 59.0 °F 78% 29.96 in 10.0 mi North 8.1 mph - N/A   Mostly Cloudy
1:52 AM 64.0 °F 59.0 °F 84% 29.96 in 10.0 mi North 8.1 mph - N/A   Overcast
2:52 AM 64.0 °F 59.0 °F 84% 29.95 in 10.0 mi NW 4.6 mph - N/A   Mostly Cloudy
3:52 AM 61.0 °F 57.9 °F 90% 29.96 in 10.0 mi NNW 6.9 mph - N/A   Clear
4:52 AM 59.0 °F 57.0 °F 93% 29.97 in 10.0 mi NNW 4.6 mph - N/A   Clear
5:52 AM 59.0 °F 57.0 °F 93% 29.99 in 10.0 mi NNW 6.9 mph - N/A   Clear
6:52 AM 61.0 °F 57.9 °F 90% 29.99 in 10.0 mi NNW 6.9 mph - N/A   Clear
7:52 AM 64.0 °F 59.0 °F 84% 30.01 in 10.0 mi North 10.4 mph - N/A   Clear
8:52 AM 69.1 °F 57.9 °F 68% 30.01 in 10.0 mi North 9.2 mph - N/A   Clear
9:52 AM 73.0 °F 57.0 °F 57% 30.02 in 10.0 mi North 9.2 mph - N/A   Clear
10:52 AM 75.0 °F 55.0 °F 50% 30.02 in 10.0 mi NNE 16.1 mph - N/A   Clear
11:52 AM 77.0 °F 54.0 °F 45% 30.02 in 10.0 mi NNE 12.7 mph - N/A   Clear
12:52 PM 78.1 °F 54.0 °F 43% 30.02 in 10.0 mi North 15.0 mph 23.0 mph N/A   Clear
1:52 PM 79.0 °F 54.0 °F 42% 30.01 in 10.0 mi North 12.7 mph 21.9 mph N/A   Clear
2:52 PM 75.9 °F 53.1 °F 45% 30.01 in 10.0 mi NNW 17.3 mph - N/A   Clear
3:52 PM 79.0 °F 54.0 °F 42% 30.01 in 10.0 mi NNW 16.1 mph - N/A   Partly Cloudy
4:52 PM 75.0 °F 53.1 °F 46% 30.01 in 10.0 mi North 11.5 mph - N/A   Scattered Clouds
5:52 PM 77.0 °F 54.0 °F 45% 30.00 in 10.0 mi North 11.5 mph - N/A   Partly Cloudy
6:52 PM 77.0 °F 55.0 °F 47% 30.00 in 10.0 mi North 9.2 mph - N/A   Scattered Clouds
7:52 PM 73.9 °F 53.1 °F 48% 30.01 in 10.0 mi North 8.1 mph - N/A   Clear
8:52 PM 69.1 °F 53.1 °F 57% 30.01 in 10.0 mi North 8.1 mph - N/A   Clear
9:52 PM 64.9 °F 52.0 °F 63% 30.02 in 10.0 mi North 6.9 mph - N/A   Clear
10:52 PM 64.0 °F 52.0 °F 65% 30.02 in 10.0 mi NNW 3.5 mph - N/A   Clear
11:52 PM 63.0 °F 51.1 °F 65% 30.02 in 10.0 mi North 4.6 mph - N/A   Clear